This demonstration page uses our WeatherBlox Daily Observations layout. Learn more.

Left ArrowRight Arrow

41.86663, -103.66717

Hourly Observations for April 27, 2018

Temp ( °F °C ) Dew Point ( °F °C ) Humidity (%) Winds ( mph kmh ) Pressure ( in mb ) Visibility ( mi km ) Precip ( " mm )
12:53 am 00:53 Clear 35 1.7 30 -1.1 82 82 NNW 6 9 30.14 1021 10 16 N/A
1:53 am 01:53 Clear 35 1.7 29 -1.7 78 78 NNW 5 7 30.12 1020 10 16 N/A
2:53 am 02:53 Clear 37 2.8 30 -1.1 76 76 WNW 3 6 30.11 1020 10 16 N/A
3:53 am 03:53 Clear 34 1.1 30 -1.1 85 85 NW 9 15 30.11 1020 10 16 N/A
4:53 am 04:53 Clear 31 -0.6 29 -1.7 92 92 NW 7 11 30.10 1019 10 16 N/A
5:53 am 05:53 Clear 31 -0.6 29 -1.7 92 92 WNW 6 9 30.11 1020 10 16 N/A
6:53 am 06:53 Sunny 33 0.6 30 -1.1 89 89 NW 12 19 30.12 1020 10 16 N/A
7:53 am 07:53 Sunny 43 6.1 34 1.1 71 71 WNW 12 19 30.11 1020 10 16 N/A
8:53 am 08:53 Sunny 51 10.6 34 1.1 52 52 WNW 10 17 30.10 1019 10 16 N/A
9:53 am 09:53 Sunny 59 15 36 2.2 42 42 WNW 7 11 30.10 1019 10 16 N/A
10:53 am 10:53 Sunny 65 18.3 33 0.6 31 31 W 8 13 30.08 1019 10 16 N/A
11:53 am 11:53 Sunny 70 21.1 33 0.6 26 26 VRB 6 9 30.05 1018 10 16 N/A
12:53 pm 12:53 Sunny 71 21.7 34 1.1 26 26 VRB 5 7 30.03 1017 10 16 N/A
1:53 pm 13:53 Sunny 74 23.3 31 -0.6 20 20 N N/A 30.00 1016 10 16 N/A
2:53 pm 14:53 Sunny 74 23.3 29 -1.7 19 19 N N/A 29.97 1015 10 16 N/A
3:53 pm 15:53 Sunny 75 23.9 31 -0.6 20 20 ENE 13 20 29.96 1015 10 16 N/A
4:53 pm 16:53 Sunny 75 23.9 30 -1.1 19 19 ENE 8 13 29.96 1015 10 16 N/A
5:53 pm 17:53 Sunny 73 22.8 31 -0.6 21 21 ENE 7 11 29.97 1015 10 16 N/A
6:53 pm 18:53 Sunny 70 21.1 32 undefined 25 25 E 13 20 29.96 1015 10 16 N/A
7:53 pm 19:53 Clear 60 15.6 34 1.1 38 38 E 10 17 29.97 1015 10 16 N/A
8:53 pm 20:53 Clear 54 12.2 35 1.7 49 49 ENE 10 17 29.98 1015 10 16 N/A
9:53 pm 21:53 Clear 52 11.1 35 1.7 53 53 E 7 11 29.99 1016 10 16 N/A
10:53 pm 22:53 Clear 47 8.3 35 1.7 63 63 E 8 13 30.01 1016 10 16 N/A
11:53 pm 23:53 Clear 47 8.3 36 2.2 66 66 E 8 13 30.00 1016 10 16 N/A

Powered by AerisWeather